SCP
0 0 0 0 0 0 0 0 0 0 0 -0 -0 0 0 0 0 0 -0 -0 0 -0 -0 -0 -0 -0 -0 -0 0 0 0 0 0 0 0 0 0 0 0 0 0 0 0
0 0 0 0 0 0 0 0 0 0 0 -0 -0 -0 -0 -0 -0 -0 -0 0 -0 -0 -0 -0 -0 -0 -0 0 0 0 0 -0 -0 -0 0 0 0 0 0 0 0 0 0
0 0 0 0 0 0 0 0 0 -0 -0 -0 -0 0 0 -0 -0 -0 -0 -0 0 0 -0 -0 -0 -0 0 0 0 0 -0 -0 -0 -0 -0 -0 0 0 0 0 0 0 0
0 0 0 0 0 0 0 0 -0 -0 -0 -0 -0 -0 -0 -0 -0 -0 -0 -0 -0 -0 -0 -0 0 0 0 0 0 -0 -0 -0 0 0 0 0 0 0 0 0 0 0 0
0 0 0 0 0 0 0 0 0 0 -0 -0 -0 -0 -0 -0 -0 -0 -0 -0 0 0 0 0 0 0 0 0 0 -0 -0 -0 -0 -0 0 0 0 0 0 0 0 0 0
0 0 0 0 0 0 0 0 0 -0 -0 -0 -0 -0 -0 0 0 0 0 0 0 0 0 0 0 0 0 0 0 -0 -0 -0 -0 0 0 0 0 0 0 0 0 0 0
0 0 0 0 0 0 0 0 0 0 -0 -0 -0 -0 -0 0 0 0 0 0 0 0 0 0 0 0 0 0 0 0 -0 -0 0 0 0 0 0 0 0 0 0 0 0
0 0 0 0 0 0 0 0 0 0 0 -0 -0 -0 -0 0 0 0 0 0 0 0 0 0 0 0 0 0 0 0 0 -0 0 0 0 0 0 0 0 0 0 0 0
0 0 0 0 0 0 0 0 0 0 0 0 0 0 0 0 0 0 0 0 0 0 0 0 0 0 0 0 0 0 0 0 0 0 0 0 0 0 0 0 0 0 0
0 0 0 0 0 0 0 0 0 0 0 0 0 0 0 0 0 0 0 0 0 0 0 0 0 0 0 0 0 0 0 0 0 0 0 0 0 0 0 0 0 0 0
0 0 0 0 0 0 0 0 0 0 0 0 0 0 0 0 0 0 0 0 0 0 0 0 0 0 0 0 0 0 0 0 0 0 0 0 0 0 0 0 0 0 0
0 0 0 0 0 0 0 0 0 0 0 0 0 0 0 0 0 0 0 0 0 0 0 0 0 0 0 0 0 0 0 0 0 0 0 0 0 0 0 0 0 0 0
0 0 0 0 0 0 0 0 0 0 0 0 0 0 0 0 0 0 0 0 0 0 0 0 0 0 0 0 0 0 0 0 0 0 0 0 0 0 0 0 0 0 0
0 0 0 -0 0 0 0 0 0 0 0 0 0 0 0 0 0 0 0 0 0 0 0 0 0 0 0 0 0 0 0 0 0 0 0 0 0 0 0 0 0 0 0
0 0 0 0 0 0 0 0 0 0 0 0 0 0 0 0 0 0 0 0 0 0 0 0 0 0 0 0 0 0 0 0 0 0 0 0 0 0 0 0 0 0 0
0 0 0 0 0 0 0 0 0 0 0 0 0 0 0 0 0 0 0 0 0 0 0 0 0 0 0 0 0 0 0 0 0 0 0 0 0 0 0 0 0 0 0
0 0 0 0 0 0 0 0 0 0 0 0 0 0 0 0 0 0 0 0 0 0 0 0 0 0 0 0 0 0 0 0 0 0 0 0 0 0 0 0 0 0 0
0 0 0 0 0 0 0 0 0 0 0 0 0 0 0 0 0 0 0 0 0 0 0 0 0 0 0 0 0 0 0 0 0 0 0 0 0 0 0 0 0 0 0
0 0 0 0 0 0 0 0 0 0 0 0 0 0 0 0 0 0 0 0 0 0 0 0 0 0 0 0 0 0 0 0 0 0 0 0 0 0 0 0 0 0 0
0 0 0 0 0 0 0 0 0 0 0 0 0 0 0 0 0 0 0 0 0 0 0 0 0 0 0 0 0 0 0 0 0 0 0 0 0 0 0 0 0 0 0
0 0 0 0 0 0 0 0 0 0 0 0 0 0 0 0 0 0 0 0 0 0 0 0 0 0 0 0 0 0 0 0 0 0 0 0 0 0 0 0 0 0 0
0 0 0 0 0 0 0 0 0 0 0 0 0 0 0 0 0 0 0 0 0 0 0 0 0 0 0 0 0 0 0 0 0 0 0 0 0 0 0 0 0 0 0
0 0 0 0 0 0 0 0 0 0 0 0 0 0 0 0 0 0 0 0 0 0 0 0 0 0 0 0 0 0 0 0 0 0 0 0 0 0 0 0 0 0 0
0 0 0 0 0 0 0 0 0 0 0 0 0 0 0 0 0 0 0 0 0 0 0 0 0 0 0 0 0 0 0 0 0 0 0 0 0 0 0 0 0 0 0
0 0 0 0 0 0 0 0 0 0 0 0 0 0 0 0 0 0 0 0 0 0 0 0 0 0 0 0 0 0 0 0 0 0 0 0 0 0 0 0 0 0 0
0 0 0 0 0 0 0 0 0 0 0 0 0 0 0 0 0 0 0 0 0 0 0 0 0 0 0 0 0 0 0 0 0 0 0 0 0 0 0 0 0 0 0
Wind_Speed_500mb
21 31 26 23 24 26 25 22 22 21 21 19 19 18 16 15 14 13 10 9 9 9 15 21 22 19 18 22 22 23 25 30 36 40 34 25 26 28 29 25 26 31 31
32 32 26 24 25 26 24 21 17 16 15 14 12 12 11 10 9 11 15 20 23 20 22 23 23 22 22 22 21 23 27 32 37 34 27 32 25 21 22 22 23 24 24
35 33 26 22 24 29 24 19 15 10 11 9 7 6 7 8 8 11 15 20 23 22 20 23 21 21 22 22 23 24 25 32 38 29 23 19 24 25 22 20 19 18 18
35 32 26 24 24 29 28 26 18 9 4 6 6 6 8 10 10 11 13 21 18 25 16 13 19 20 21 21 21 23 26 29 33 23 15 12 23 22 21 16 14 15 15
32 30 26 23 22 26 26 26 19 9 8 7 8 7 8 10 11 11 10 14 17 17 18 11 15 18 19 19 20 21 23 24 25 18 14 6 12 18 20 19 15 15 16
31 24 20 17 16 16 17 16 17 13 9 4 5 6 4 6 8 8 8 11 11 10 14 11 13 15 16 16 15 16 18 23 21 12 13 10 10 13 18 18 16 14 14
33 25 25 22 21 19 18 18 19 17 11 8 3 3 2 4 6 7 7 8 8 6 7 8 11 10 9 11 11 11 11 13 16 7 0 9 9 12 16 18 17 14 14
32 28 25 21 19 18 19 20 20 20 16 13 9 5 5 4 6 6 5 4 3 5 2 2 3 3 3 3 4 6 7 5 8 4 2 6 9 11 13 18 16 15 14
34 26 25 20 19 18 16 16 16 18 19 17 14 10 10 6 8 8 9 8 6 9 8 6 6 4 5 7 6 4 3 2 2 3 2 11 11 13 14 14 13 13 14
21 30 24 25 21 20 19 18 18 21 22 21 19 18 13 10 13 9 13 13 11 12 12 11 9 10 12 12 13 12 10 9 9 9 10 15 13 16 17 15 14 14 12
28 20 23 25 26 24 22 20 21 21 23 24 24 24 22 13 13 14 16 16 14 15 17 18 15 17 17 18 19 20 19 17 18 15 16 21 18 19 20 20 16 15 13
46 42 31 29 26 22 22 24 23 22 23 24 25 25 25 21 15 17 19 17 18 19 20 19 21 23 22 22 24 23 21 23 25 22 24 27 26 25 24 24 22 20 17
33 41 35 31 23 27 26 27 25 26 24 26 26 26 24 23 21 26 28 29 26 26 25 23 24 24 23 24 23 26 28 28 28 30 29 32 33 31 31 30 29 27 25
33 31 31 32 33 31 29 32 27 26 26 28 27 27 29 29 29 31 27 26 26 25 24 24 26 27 26 27 32 32 35 38 38 37 37 38 40 35 36 38 37 34 33
26 26 28 35 38 38 37 32 30 30 30 29 30 31 31 33 32 31 31 30 29 31 30 30 29 29 34 36 36 38 39 38 39 40 42 44 46 46 41 44 44 42 40
29 28 28 26 28 35 39 35 35 32 35 34 33 35 36 35 36 34 34 34 34 33 34 35 35 36 37 38 41 42 44 44 44 47 48 47 46 47 45 45 48 48 47
33 32 34 34 30 31 33 36 40 38 37 39 38 36 39 41 40 42 40 39 38 37 37 37 39 41 43 43 47 47 48 49 50 47 48 52 53 53 52 50 47 48 50
33 34 38 41 40 37 36 36 39 44 47 45 44 43 40 42 43 43 44 44 41 41 42 43 42 43 45 46 48 47 48 50 52 55 56 55 55 55 57 59 55 52 50
34 36 39 42 45 44 45 48 49 46 46 50 51 49 46 45 44 46 45 42 41 42 43 44 45 46 45 45 48 49 50 51 54 56 60 64 66 65 61 59 60 59 56
48 48 48 46 49 51 45 46 50 52 51 47 48 53 51 48 46 47 48 46 44 45 45 45 46 46 47 45 44 46 53 57 61 69 71 70 71 70 67 63 61 59 56
45 50 58 56 54 49 50 52 50 51 51 53 47 46 47 51 49 50 49 48 46 48 50 50 49 50 52 51 55 60 64 66 66 62 56 51 48 45 44 46 49 52 52
50 50 51 55 55 51 51 51 49 47 47 45 48 46 46 51 54 51 50 48 46 48 51 53 54 54 55 54 55 58 52 58 63 44 44 38 40 40 42 48 53 52 53
46 56 59 59 58 53 50 49 49 44 43 45 48 44 41 36 37 55 50 49 48 46 49 51 52 52 56 57 57 49 25 29 46 54 32 26 26 41 53 51 48 51 63
48 50 54 49 50 50 51 53 54 55 51 50 46 36 33 36 34 27 32 39 38 42 45 48 49 49 48 54 56 60 62 64 51 44 49 58 61 54 56 59 66 67 63
46 50 48 52 55 53 52 53 50 49 45 37 23 27 31 31 28 27 29 35 39 39 43 44 46 48 49 50 54 58 60 63 63 66 64 59 65 72 68 63 65 62 58
20 25 32 35 39 43 45 46 47 47 42 35 34 39 35 28 26 28 31 31 33 38 40 43 43 46 48 49 51 54 57 58 63 64 67 69 69 79 73 71 66 63 60
Wind_Direction_500mb
179 159 146 133 127 122 118 117 116 129 118 112 114 111 105 104 95 77 74 73 99 114 82 82 86 96 95 98 94 89 83 81 74 64 53 57 72 72 75 72 59 61 59
166 156 150 138 134 129 131 135 125 121 125 126 118 115 107 103 92 81 74 77 79 94 84 79 79 84 89 91 88 85 88 82 74 61 45 26 61 68 67 64 63 56 52
164 155 150 142 142 139 139 137 139 123 128 129 121 113 123 117 100 101 93 95 96 80 69 65 70 79 83 86 83 84 94 90 81 63 56 24 52 58 56 55 57 54 52
157 159 153 145 147 151 151 150 156 145 135 165 155 151 144 140 129 125 102 94 83 104 87 55 64 75 81 87 81 91 94 93 82 75 58 19 39 47 44 44 40 29 30
158 158 150 147 150 163 166 168 171 155 143 136 152 158 178 160 152 146 136 103 95 88 106 98 76 75 81 86 83 87 95 91 71 57 59 10 5 29 31 30 30 30 28
153 150 148 143 142 158 171 166 157 169 154 137 143 151 187 183 144 151 169 133 108 97 91 97 84 79 76 78 79 85 98 91 72 64 43 25 346 9 13 12 15 17 17
147 163 164 157 155 154 163 175 177 184 174 167 161 148 165 173 171 165 180 172 150 140 111 112 89 77 72 72 73 80 87 94 110 148 123 359 335 351 0 4 6 6 6
162 181 174 166 163 166 173 181 186 189 181 202 208 215 308 269 212 200 214 208 221 229 207 116 125 89 38 38 53 57 67 79 83 327 111 307 327 325 341 351 359 0 359
182 183 177 178 176 180 186 188 191 199 199 206 221 226 250 234 225 209 216 223 226 254 256 245 238 239 283 308 319 319 337 359 358 343 345 303 324 316 325 343 345 350 350
207 192 199 191 195 194 193 196 199 206 211 220 229 231 232 223 250 248 248 262 257 264 271 259 263 268 274 279 290 294 293 298 295 307 312 299 304 310 315 326 330 331 337
189 220 206 202 200 205 204 205 209 215 223 226 232 238 255 259 261 267 264 265 262 270 275 277 271 263 268 275 280 284 285 287 286 287 282 289 293 301 304 311 315 315 315
201 194 204 211 208 218 218 216 219 223 228 235 240 245 245 252 253 270 275 271 271 274 275 280 277 278 280 274 274 271 278 277 275 276 278 283 290 291 294 296 300 301 300
215 214 208 211 219 225 222 234 225 234 233 238 239 245 245 242 242 248 258 266 273 273 272 273 271 284 281 276 272 280 282 281 279 279 278 280 286 285 289 290 290 291 292
217 220 219 211 207 228 229 233 241 239 242 242 246 246 244 245 242 254 259 262 269 274 275 279 280 284 289 292 285 278 273 276 279 280 279 279 284 283 284 285 285 286 285
224 224 222 216 221 219 230 230 236 240 248 250 249 252 252 253 253 255 259 263 264 274 279 280 276 268 274 281 283 285 287 286 284 284 284 281 282 285 282 282 281 281 282
223 223 232 228 221 224 235 234 236 238 244 252 250 251 257 258 258 258 261 263 266 267 270 273 275 276 275 277 282 285 288 288 287 288 288 287 286 287 287 283 282 281 280
222 223 228 237 233 228 227 233 238 243 244 248 257 253 254 258 257 256 258 262 267 270 271 269 270 273 274 275 279 283 286 289 293 292 289 288 289 290 291 290 287 284 282
229 233 231 234 242 249 253 250 244 242 242 244 252 259 259 259 263 259 256 261 265 267 269 269 273 275 276 280 285 288 290 292 293 294 294 292 291 291 292 292 291 288 285
231 232 239 244 245 248 254 262 264 256 249 251 250 254 259 261 261 263 263 263 263 266 266 268 272 275 276 278 282 287 289 290 290 288 288 291 293 294 292 291 289 288 285
231 231 231 240 253 257 255 254 254 265 268 261 254 254 255 258 262 264 264 264 260 262 260 260 263 265 269 271 270 270 278 280 281 286 291 292 292 291 291 292 290 289 286
244 247 244 244 236 239 248 253 251 254 261 273 274 263 253 247 256 263 265 263 259 256 259 264 262 262 266 264 272 273 276 284 285 289 293 292 290 295 294 295 295 295 295
244 243 245 245 247 243 246 252 254 257 260 265 269 274 268 254 246 249 256 258 255 252 259 264 263 261 266 269 269 277 286 291 299 305 313 309 303 297 300 301 297 295 296
249 252 250 246 251 249 249 249 252 250 251 255 260 271 274 271 255 249 248 254 263 262 264 268 268 265 265 273 273 270 278 279 293 298 291 280 290 287 291 288 286 294 300
254 251 244 249 243 238 230 239 247 254 252 258 263 267 262 268 272 257 246 258 269 270 271 272 276 276 270 270 275 275 276 277 283 291 290 290 287 277 282 285 293 293 293
245 247 246 239 240 237 233 233 238 246 254 255 253 242 248 252 261 269 270 269 277 280 281 280 278 278 278 275 274 277 280 285 282 279 283 289 293 297 297 295 295 294 294
259 251 244 235 236 238 240 239 238 241 245 240 231 243 255 261 263 273 278 273 260 260 266 274 276 276 278 278 279 279 280 279 281 285 283 289 292 296 297 297 294 293 294
Wind_Speed_850mb
21 31 26 23 24 26 25 22 22 21 21 19 19 18 16 15 14 13 10 9 9 9 15 21 22 19 18 22 22 23 25 30 36 40 34 25 26 28 29 25 26 31 31
32 32 26 24 25 26 24 21 17 16 15 14 12 12 11 10 9 11 15 20 23 20 22 23 23 22 22 22 21 23 27 32 37 34 27 32 25 21 22 22 23 24 24
35 33 26 22 24 29 24 19 15 10 11 9 7 6 7 8 8 11 15 20 23 22 20 23 21 21 22 22 23 24 25 32 38 29 23 19 24 25 22 20 19 18 18
35 32 26 24 24 29 28 26 18 9 4 6 6 6 8 10 10 11 13 21 18 25 16 13 19 20 21 21 21 23 26 29 33 23 15 12 23 22 21 16 14 15 15
32 30 26 23 22 26 26 26 19 9 8 7 8 7 8 10 11 11 10 14 17 17 18 11 15 18 19 19 20 21 23 24 25 18 14 6 12 18 20 19 15 15 16
31 24 20 17 16 16 17 16 17 13 9 4 5 6 4 6 8 8 8 11 11 10 14 11 13 15 16 16 15 16 18 23 21 12 13 10 10 13 18 18 16 14 14
33 25 25 22 21 19 18 18 19 17 11 8 3 3 2 4 6 7 7 8 8 6 7 8 11 10 9 11 11 11 11 13 16 7 0 9 9 12 16 18 17 14 14
32 28 25 21 19 18 19 20 20 20 16 13 9 5 5 4 6 6 5 4 3 5 2 2 3 3 3 3 4 6 7 5 8 4 2 6 9 11 13 18 16 15 14
34 26 25 20 19 18 16 16 16 18 19 17 14 10 10 6 8 8 9 8 6 9 8 6 6 4 5 7 6 4 3 2 2 3 2 11 11 13 14 14 13 13 14
21 30 24 25 21 20 19 18 18 21 22 21 19 18 13 10 13 9 13 13 11 12 12 11 9 10 12 12 13 12 10 9 9 9 10 15 13 16 17 15 14 14 12
28 20 23 25 26 24 22 20 21 21 23 24 24 24 22 13 13 14 16 16 14 15 17 18 15 17 17 18 19 20 19 17 18 15 16 21 18 19 20 20 16 15 13
46 42 31 29 26 22 22 24 23 22 23 24 25 25 25 21 15 17 19 17 18 19 20 19 21 23 22 22 24 23 21 23 25 22 24 27 26 25 24 24 22 20 17
33 41 35 31 23 27 26 27 25 26 24 26 26 26 24 23 21 26 28 29 26 26 25 23 24 24 23 24 23 26 28 28 28 30 29 32 33 31 31 30 29 27 25
33 31 31 32 33 31 29 32 27 26 26 28 27 27 29 29 29 31 27 26 26 25 24 24 26 27 26 27 32 32 35 38 38 37 37 38 40 35 36 38 37 34 33
26 26 28 35 38 38 37 32 30 30 30 29 30 31 31 33 32 31 31 30 29 31 30 30 29 29 34 36 36 38 39 38 39 40 42 44 46 46 41 44 44 42 40
29 28 28 26 28 35 39 35 35 32 35 34 33 35 36 35 36 34 34 34 34 33 34 35 35 36 37 38 41 42 44 44 44 47 48 47 46 47 45 45 48 48 47
33 32 34 34 30 31 33 36 40 38 37 39 38 36 39 41 40 42 40 39 38 37 37 37 39 41 43 43 47 47 48 49 50 47 48 52 53 53 52 50 47 48 50
33 34 38 41 40 37 36 36 39 44 47 45 44 43 40 42 43 43 44 44 41 41 42 43 42 43 45 46 48 47 48 50 52 55 56 55 55 55 57 59 55 52 50
34 36 39 42 45 44 45 48 49 46 46 50 51 49 46 45 44 46 45 42 41 42 43 44 45 46 45 45 48 49 50 51 54 56 60 64 66 65 61 59 60 59 56
48 48 48 46 49 51 45 46 50 52 51 47 48 53 51 48 46 47 48 46 44 45 45 45 46 46 47 45 44 46 53 57 61 69 71 70 71 70 67 63 61 59 56
45 50 58 56 54 49 50 52 50 51 51 53 47 46 47 51 49 50 49 48 46 48 50 50 49 50 52 51 55 60 64 66 66 62 56 51 48 45 44 46 49 52 52
50 50 51 55 55 51 51 51 49 47 47 45 48 46 46 51 54 51 50 48 46 48 51 53 54 54 55 54 55 58 52 58 63 44 44 38 40 40 42 48 53 52 53
46 56 59 59 58 53 50 49 49 44 43 45 48 44 41 36 37 55 50 49 48 46 49 51 52 52 56 57 57 49 25 29 46 54 32 26 26 41 53 51 48 51 63
48 50 54 49 50 50 51 53 54 55 51 50 46 36 33 36 34 27 32 39 38 42 45 48 49 49 48 54 56 60 62 64 51 44 49 58 61 54 56 59 66 67 63
46 50 48 52 55 53 52 53 50 49 45 37 23 27 31 31 28 27 29 35 39 39 43 44 46 48 49 50 54 58 60 63 63 66 64 59 65 72 68 63 65 62 58
20 25 32 35 39 43 45 46 47 47 42 35 34 39 35 28 26 28 31 31 33 38 40 43 43 46 48 49 51 54 57 58 63 64 67 69 69 79 73 71 66 63 60
Wind_Direction_850mb
179 159 146 133 127 122 118 117 116 129 118 112 114 111 105 104 95 77 74 73 99 114 82 82 86 96 95 98 94 89 83 81 74 64 53 57 72 72 75 72 59 61 59
166 156 150 138 134 129 131 135 125 121 125 126 118 115 107 103 92 81 74 77 79 94 84 79 79 84 89 91 88 85 88 82 74 61 45 26 61 68 67 64 63 56 52
164 155 150 142 142 139 139 137 139 123 128 129 121 113 123 117 100 101 93 95 96 80 69 65 70 79 83 86 83 84 94 90 81 63 56 24 52 58 56 55 57 54 52
157 159 153 145 147 151 151 150 156 145 135 165 155 151 144 140 129 125 102 94 83 104 87 55 64 75 81 87 81 91 94 93 82 75 58 19 39 47 44 44 40 29 30
158 158 150 147 150 163 166 168 171 155 143 136 152 158 178 160 152 146 136 103 95 88 106 98 76 75 81 86 83 87 95 91 71 57 59 10 5 29 31 30 30 30 28
153 150 148 143 142 158 171 166 157 169 154 137 143 151 187 183 144 151 169 133 108 97 91 97 84 79 76 78 79 85 98 91 72 64 43 25 346 9 13 12 15 17 17
147 163 164 157 155 154 163 175 177 184 174 167 161 148 165 173 171 165 180 172 150 140 111 112 89 77 72 72 73 80 87 94 110 148 123 359 335 351 0 4 6 6 6
162 181 174 166 163 166 173 181 186 189 181 202 208 215 308 269 212 200 214 208 221 229 207 116 125 89 38 38 53 57 67 79 83 327 111 307 327 325 341 351 359 0 359
182 183 177 178 176 180 186 188 191 199 199 206 221 226 250 234 225 209 216 223 226 254 256 245 238 239 283 308 319 319 337 359 358 343 345 303 324 316 325 343 345 350 350
207 192 199 191 195 194 193 196 199 206 211 220 229 231 232 223 250 248 248 262 257 264 271 259 263 268 274 279 290 294 293 298 295 307 312 299 304 310 315 326 330 331 337
189 220 206 202 200 205 204 205 209 215 223 226 232 238 255 259 261 267 264 265 262 270 275 277 271 263 268 275 280 284 285 287 286 287 282 289 293 301 304 311 315 315 315
201 194 204 211 208 218 218 216 219 223 228 235 240 245 245 252 253 270 275 271 271 274 275 280 277 278 280 274 274 271 278 277 275 276 278 283 290 291 294 296 300 301 300
215 214 208 211 219 225 222 234 225 234 233 238 239 245 245 242 242 248 258 266 273 273 272 273 271 284 281 276 272 280 282 281 279 279 278 280 286 285 289 290 290 291 292
217 220 219 211 207 228 229 233 241 239 242 242 246 246 244 245 242 254 259 262 269 274 275 279 280 284 289 292 285 278 273 276 279 280 279 279 284 283 284 285 285 286 285
224 224 222 216 221 219 230 230 236 240 248 250 249 252 252 253 253 255 259 263 264 274 279 280 276 268 274 281 283 285 287 286 284 284 284 281 282 285 282 282 281 281 282
223 223 232 228 221 224 235 234 236 238 244 252 250 251 257 258 258 258 261 263 266 267 270 273 275 276 275 277 282 285 288 288 287 288 288 287 286 287 287 283 282 281 280
222 223 228 237 233 228 227 233 238 243 244 248 257 253 254 258 257 256 258 262 267 270 271 269 270 273 274 275 279 283 286 289 293 292 289 288 289 290 291 290 287 284 282
229 233 231 234 242 249 253 250 244 242 242 244 252 259 259 259 263 259 256 261 265 267 269 269 273 275 276 280 285 288 290 292 293 294 294 292 291 291 292 292 291 288 285
231 232 239 244 245 248 254 262 264 256 249 251 250 254 259 261 261 263 263 263 263 266 266 268 272 275 276 278 282 287 289 290 290 288 288 291 293 294 292 291 289 288 285
231 231 231 240 253 257 255 254 254 265 268 261 254 254 255 258 262 264 264 264 260 262 260 260 263 265 269 271 270 270 278 280 281 286 291 292 292 291 291 292 290 289 286
244 247 244 244 236 239 248 253 251 254 261 273 274 263 253 247 256 263 265 263 259 256 259 264 262 262 266 264 272 273 276 284 285 289 293 292 290 295 294 295 295 295 295
244 243 245 245 247 243 246 252 254 257 260 265 269 274 268 254 246 249 256 258 255 252 259 264 263 261 266 269 269 277 286 291 299 305 313 309 303 297 300 301 297 295 296
249 252 250 246 251 249 249 249 252 250 251 255 260 271 274 271 255 249 248 254 263 262 264 268 268 265 265 273 273 270 278 279 293 298 291 280 290 287 291 288 286 294 300
254 251 244 249 243 238 230 239 247 254 252 258 263 267 262 268 272 257 246 258 269 270 271 272 276 276 270 270 275 275 276 277 283 291 290 290 287 277 282 285 293 293 293
245 247 246 239 240 237 233 233 238 246 254 255 253 242 248 252 261 269 270 269 277 280 281 280 278 278 278 275 274 277 280 285 282 279 283 289 293 297 297 295 295 294 294
259 251 244 235 236 238 240 239 238 241 245 240 231 243 255 261 263 273 278 273 260 260 266 274 276 276 278 278 279 279 280 279 281 285 283 289 292 296 297 297 294 293 294